"Pseudo-MPEC" for P10RtMB

Created 2019 Sep 14 10:07:13 UT using Find_Orb

Click here for an explanation of pseudo-MPECs

 
 Astrometry: 
     P10RtMB  C2019 09 06oO]Astrometry\6hiuXRWg)Sn2.o0^0[+T9i[v$YMbUredacted;F51
     P10RtMB  C2019 09 06cSD-N_+clickCB9kTG`d,pyherek%l4:i8N-?6b(i,5qbNW,ppw$F51
     P10RtMB  C2019 09 06q8hWbAHA4\\#N0dG*D3s;OHL[rB3wnK?Kgat/O0E,9UJ`/PjScImF51
     P10RtMB ^C2019 09 08.56731004 30 06.370+27 47 51.12   ~98Kb 21.74GVNEOCP568
     P10RtMB ^C2019 09 08.56827904 30 06.596+27 47 52.08   ~98Kb 21.69GVNEOCP568
     P10RtMB ^C2019 09 08.56923404 30 06.812+27 47 53.02   ~98Kb 21.65GVNEOCP568
     P10RtMB ^C2019 09 09.59673804 34 09.707+28 04 35.73   ~99Fq 21.71GVNEOCP568
     P10RtMB ^C2019 09 09.59768704 34 09.931+28 04 36.66   ~99Fq 21.65GVNEOCP568
     P10RtMB ^C2019 09 09.59864204 34 10.155+28 04 37.59   ~99Fq 21.70GVNEOCP568
     P10RtMB ^C2019 09 09.61385604 34 13.727+28 04 52.52   ~99Fq 21.74GVNEOCP568
     P10RtMB ^C2019 09 09.61480904 34 13.952+28 04 53.45   ~99Fq 21.64GVNEOCP568
     P10RtMB ^C2019 09 09.61576204 34 14.177+28 04 54.38   ~99Fq 21.68GVNEOCP568
     P10RtMB IC2019 09 11fuN8r;if@/7for.JeqSv_5q/OZ_@4#^]p$Xxp*n`p4o.Bss9LIUeL01
     P10RtMB KC2019 09 118tha3bOjexplanation2:$D9tO-Zyu)-V[1(^Amw!Ae/'ky'W:_VL01

Station data:
(568) Mauna Kea  (N19.826116 W155.472200)  US/Hawaii.
(F51) Pan-STARRS 1, Haleakala  (N20.707235 W156.255910)  US/Hawaii.
   Observers N. Primak, A. Schultz, S. Watters, J. Thiel, T. Goggia. Measurer
   PS1 Science Consortium. 1.8-m Ritchey-Chrétien + CCD.
(L01) Višnjan Observatory, Tičan  (N45.290900 E13.749300)  Croatia.
   Observers K. Korlević, E. Pettarin. Measurer E. Pettarin. 1.0-m f/2.9
   reflector + CCD.

Orbital elements:  P10RtMB
   Perihelion 2019 Nov 28.927251 +/- 4.72 TT = 22:15:14 (JD 2458816.427251)
Epoch 2019 Sep 11.0 TT = JDT 2458737.5   Earth MOID: 0.0679   Ju: 0.3673
M 348.45870016 +/- 7                (J2000 ecliptic)          AutoNEOCP
n   0.14622706 +/- 0.125            Peri.  115.45843 +/- 7
a   3.56821391 +/- 2.07             Node   355.35688 +/- 2.3
e   0.7384679 +/- 0.145             Incl.    7.44476 +/- 0.37
P   6.74                   H 19.6   G  0.15   U 11.3  
q 0.93320220 +/- 0.058    Q 6.20322562 +/- 13.6
From 14 observations 2019 Sept. 6-11; mean residual 0".12
Residuals in arcseconds: 
190906 F51  .09+  .03-    190908 568  .08+  .04-    190909 568  .16-  .18+    
190906 F51  .01-  .03-    190909 568  .07-  .18+    190909 568  .15-  .18+    
190906 F51  .06-  .11-    190909 568  .06-  .18+    190911 L01  .06+  .18-    
190908 568  .10+  .04-    190909 568  .07-  .17+    190911 L01  .09+  .15-    
190908 568  .14+  .04-    190909 568  .17-  .18+    

Ephemerides (geocentric):
Date (UTC) HH   RA              Dec         delta   r     elong  mag " sig PA
---- -- -- --  -------------   -----------  ------ ------ -----  --- ---- ---
2019 09 14 10  04 54 21.502   +29 21 27.43  .92745 1.4306  95.4 21.9 6.91  61
2019 09 14 11  04 54 32.529   +29 22 06.41  .92690 1.4301  95.4 21.9 7.05  61
2019 09 14 12  04 54 43.566   +29 22 45.37  .92636 1.4297  95.4 21.9 7.18  61
2019 09 14 13  04 54 54.613   +29 23 24.31  .92581 1.4293  95.4 21.9 7.32  61
2019 09 14 14  04 55 05.669   +29 24 03.23  .92526 1.4289  95.4 21.9 7.46  61
2019 09 14 15  04 55 16.735   +29 24 42.13  .92472 1.4285  95.4 21.9 7.60  61
2019 09 14 16  04 55 27.812   +29 25 21.01  .92417 1.4281  95.4 21.9 7.74  61
2019 09 14 17  04 55 38.898   +29 25 59.87  .92362 1.4277  95.4 21.9 7.89  61
2019 09 14 18  04 55 49.994   +29 26 38.71  .92308 1.4273  95.4 21.9 8.04  61
2019 09 14 19  04 56 01.100   +29 27 17.52  .92253 1.4269  95.4 21.9 8.19  61
2019 09 14 20  04 56 12.216   +29 27 56.32  .92199 1.4265  95.3 21.9 8.34  61
2019 09 14 21  04 56 23.342   +29 28 35.10  .92145 1.4261  95.3 21.9 8.49  61
2019 09 14 22  04 56 34.478   +29 29 13.86  .92090 1.4257  95.3 21.9 8.65  61
2019 09 14 23  04 56 45.624   +29 29 52.59  .92036 1.4252  95.3 21.9 8.80  62
2019 09 15 00  04 56 56.780   +29 30 31.31  .91982 1.4248  95.3 21.9 8.96  62
2019 09 15 01  04 57 07.946   +29 31 10.00  .91927 1.4244  95.3 21.9 9.12  62
2019 09 15 02  04 57 19.122   +29 31 48.67  .91873 1.4240  95.3 21.9 9.28  62
2019 09 15 03  04 57 30.308   +29 32 27.32  .91819 1.4236  95.3 21.9 9.45  62
2019 09 15 04  04 57 41.504   +29 33 05.95  .91765 1.4232  95.3 21.9 9.62  62
2019 09 15 05  04 57 52.710   +29 33 44.56  .91710 1.4228  95.3 21.9 9.78  62
2019 09 15 06  04 58 03.926   +29 34 23.14  .91656 1.4224  95.3 21.9 9.96  62
2019 09 15 07  04 58 15.152   +29 35 01.71  .91602 1.4220  95.3 21.8 10.1  62
2019 09 15 08  04 58 26.388   +29 35 40.25  .91548 1.4216  95.3 21.8 10.3  62
2019 09 15 09  04 58 37.634   +29 36 18.76  .91494 1.4212  95.3 21.8 10.5  62
2019 09 15 10  04 58 48.891   +29 36 57.26  .91440 1.4208  95.3 21.8 10.7  62
2019 09 15 11  04 59 00.157   +29 37 35.73  .91386 1.4203  95.3 21.8 10.8  62
2019 09 15 12  04 59 11.434   +29 38 14.19  .91333 1.4199  95.3 21.8 11.0  63
2019 09 15 13  04 59 22.721   +29 38 52.61  .91279 1.4195  95.3 21.8 11.2  63
2019 09 15 14  04 59 34.018   +29 39 31.02  .91225 1.4191  95.3 21.8 11.4  63
2019 09 15 15  04 59 45.325   +29 40 09.40  .91171 1.4187  95.3 21.8 11.6  63
2019 09 15 16  04 59 56.642   +29 40 47.76  .91117 1.4183  95.3 21.8 11.8  63
2019 09 15 17  05 00 07.969   +29 41 26.10  .91064 1.4179  95.3 21.8 12.0  63
2019 09 15 18  05 00 19.307   +29 42 04.41  .91010 1.4175  95.3 21.8 12.2  63
2019 09 15 19  05 00 30.655   +29 42 42.70  .90956 1.4171  95.3 21.8 12.4  63
2019 09 15 20  05 00 42.013   +29 43 20.96  .90903 1.4167  95.3 21.8 12.6  63
2019 09 15 21  05 00 53.381   +29 43 59.21  .90849 1.4163  95.3 21.8 12.8  63
2019 09 15 22  05 01 04.759   +29 44 37.42  .90796 1.4159  95.3 21.8 13.0  63
2019 09 15 23  05 01 16.148   +29 45 15.62  .90742 1.4155  95.3 21.8 13.2  63
2019 09 16 00  05 01 27.547   +29 45 53.79  .90689 1.4150  95.3 21.8 13.4  63
2019 09 16 01  05 01 38.956   +29 46 31.93  .90635 1.4146  95.3 21.8 13.6  63
2019 09 16 02  05 01 50.376   +29 47 10.05  .90582 1.4142  95.3 21.8 13.8  64
2019 09 16 03  05 02 01.805   +29 47 48.15  .90529 1.4138  95.3 21.8 14.0  64
2019 09 16 04  05 02 13.245   +29 48 26.22  .90475 1.4134  95.3 21.8 14.3  64
2019 09 16 05  05 02 24.696   +29 49 04.27  .90422 1.4130  95.3 21.8 14.5  64
2019 09 16 06  05 02 36.156   +29 49 42.29  .90369 1.4126  95.3 21.8 14.7  64
2019 09 16 07  05 02 47.627   +29 50 20.28  .90316 1.4122  95.3 21.8 14.9  64
2019 09 16 08  05 02 59.109   +29 50 58.25  .90262 1.4118  95.3 21.8 15.2  64
2019 09 16 09  05 03 10.600   +29 51 36.20  .90209 1.4114  95.3 21.8 15.4  64